N252JR PAPG-PAGY

Flight info

Callsign N252JR
Flight time N/A
Altitude 7500
Route UNEKY T266 ROTVE BAVKE FEDMI
Aircraft BE20/L-SBGRY/EB1

Departure

Time 2026-05-06 19:37
Airport Petersburg James A Johnson Airport (PAPG)

Arrival

Time N/A
Airport Skagway Airport (PAGY)
Time Latitude Longitude Altitude Speed Heading
2026-05-06 19:08 56.80557 -132.93497 97 ft 0 kts 34°
2026-05-06 19:15 56.80558 -132.93497 96 ft 0 kts 34°
2026-05-06 19:15 56.80558 -132.93496 97 ft 0 kts 34°
2026-05-06 19:16 56.80559 -132.93496 97 ft 0 kts 34°
2026-05-06 19:17 56.80559 -132.93495 97 ft 0 kts 34°
2026-05-06 19:18 56.80559 -132.93494 97 ft 0 kts 35°
2026-05-06 19:18 56.80560 -132.93494 97 ft 0 kts 35°
2026-05-06 19:19 56.80560 -132.93493 97 ft 0 kts 35°
2026-05-06 19:20 56.80561 -132.93493 97 ft 0 kts 35°
2026-05-06 19:21 56.80561 -132.93492 96 ft 0 kts 35°
2026-05-06 19:21 56.80562 -132.93492 96 ft 0 kts 35°
2026-05-06 19:21 56.80562 -132.93491 96 ft 0 kts 35°
2026-05-06 19:22 56.80563 -132.93490 96 ft 0 kts 34°
2026-05-06 19:23 56.80563 -132.93489 96 ft 0 kts 34°
2026-05-06 19:23 56.80564 -132.93489 96 ft 0 kts 34°
2026-05-06 19:23 56.80564 -132.93488 96 ft 0 kts 34°
2026-05-06 19:24 56.80565 -132.93488 96 ft 0 kts 34°
2026-05-06 19:24 56.80565 -132.93487 96 ft 0 kts 34°
2026-05-06 19:24 56.80566 -132.93487 96 ft 0 kts 34°
2026-05-06 19:25 56.80566 -132.93486 97 ft 0 kts 33°
2026-05-06 19:26 56.80567 -132.93485 97 ft 0 kts 33°
2026-05-06 19:26 56.80574 -132.93477 97 ft 3 kts 33°
2026-05-06 19:26 56.80583 -132.93439 97 ft 5 kts 113°
2026-05-06 19:27 56.80544 -132.93427 97 ft 8 kts 193°
2026-05-06 19:27 56.80489 -132.93406 96 ft 8 kts 161°
2026-05-06 19:27 56.80471 -132.93395 97 ft 0 kts 161°
2026-05-06 19:28 56.80471 -132.93394 97 ft 0 kts 161°
2026-05-06 19:28 56.80470 -132.93394 97 ft 0 kts 161°
2026-05-06 19:30 56.80469 -132.93394 97 ft 0 kts 161°
2026-05-06 19:30 56.80469 -132.93393 97 ft 0 kts 161°
2026-05-06 19:31 56.80468 -132.93393 97 ft 0 kts 160°
2026-05-06 19:32 56.80455 -132.93385 97 ft 6 kts 161°
2026-05-06 19:32 56.80394 -132.93373 97 ft 12 kts 204°
2026-05-06 19:32 56.80351 -132.93537 97 ft 17 kts 250°
2026-05-06 19:32 56.80313 -132.93731 97 ft 15 kts 251°
2026-05-06 19:33 56.80282 -132.93896 97 ft 13 kts 251°
2026-05-06 19:33 56.80251 -132.94056 97 ft 16 kts 250°
2026-05-06 19:33 56.80206 -132.94285 97 ft 22 kts 249°
2026-05-06 19:33 56.80154 -132.94559 97 ft 22 kts 251°
2026-05-06 19:34 56.80110 -132.94799 97 ft 18 kts 250°
2026-05-06 19:34 56.80067 -132.95023 97 ft 22 kts 250°
2026-05-06 19:34 56.80003 -132.95333 97 ft 30 kts 247°
2026-05-06 19:34 56.79943 -132.95656 97 ft 23 kts 254°
2026-05-06 19:35 56.79912 -132.95875 97 ft 12 kts 214°
2026-05-06 19:35 56.79897 -132.95855 97 ft 0 kts 48°
2026-05-06 19:35 56.79898 -132.95853 97 ft 1 kts 48°
2026-05-06 19:35 56.79915 -132.95809 97 ft 7 kts 69°
2026-05-06 19:36 56.79917 -132.95797 97 ft 0 kts 68°
2026-05-06 19:36 56.79917 -132.95796 97 ft 0 kts 68°
2026-05-06 19:36 56.79917 -132.95795 96 ft 0 kts 68°
2026-05-06 19:36 56.79936 -132.95699 97 ft 34 kts 72°
2026-05-06 19:37 56.80020 -132.95258 97 ft 74 kts 71°
2026-05-06 19:37 56.80250 -132.94095 139 ft 115 kts 71°
2026-05-06 19:37 56.80632 -132.92218 547 ft 124 kts 70°
2026-05-06 19:37 56.80848 -132.91232 755 ft 123 kts 70°
2026-05-06 19:38 56.81171 -132.89820 1033 ft 116 kts 68°
2026-05-06 19:38 56.81740 -132.88182 1592 ft 124 kts 38°
2026-05-06 19:38 56.82624 -132.87846 1983 ft 139 kts 357°
2026-05-06 19:38 56.83287 -132.88017 2238 ft 147 kts 351°
2026-05-06 19:39 56.84321 -132.88369 2587 ft 154 kts 349°
2026-05-06 19:39 56.85389 -132.88739 2921 ft 157 kts 349°
2026-05-06 19:39 56.86467 -132.89104 3249 ft 159 kts 349°
2026-05-06 19:39 56.87545 -132.89574 3566 ft 160 kts 338°
2026-05-06 19:40 56.88466 -132.90654 3912 ft 158 kts 322°
2026-05-06 19:40 56.89323 -132.91904 4242 ft 158 kts 320°
2026-05-06 19:40 56.90174 -132.93181 4569 ft 158 kts 320°
2026-05-06 19:40 56.91021 -132.94455 4894 ft 158 kts 320°
2026-05-06 19:41 56.91871 -132.95733 5219 ft 158 kts 320°
2026-05-06 19:41 56.92710 -132.96997 5542 ft 158 kts 320°
2026-05-06 19:41 56.93557 -132.98278 5865 ft 158 kts 319°
2026-05-06 19:41 56.94416 -132.99564 6123 ft 162 kts 319°
2026-05-06 19:42 56.95309 -133.00880 6352 ft 164 kts 319°
2026-05-06 19:42 56.96198 -133.02177 6580 ft 166 kts 319°
2026-05-06 19:42 56.97103 -133.03488 6804 ft 166 kts 319°
2026-05-06 19:42 56.98017 -133.04787 7029 ft 166 kts 320°
2026-05-06 19:43 56.98932 -133.06081 7253 ft 166 kts 320°
2026-05-06 19:43 56.99891 -133.07314 7407 ft 172 kts 330°
2026-05-06 19:43 57.00996 -133.08226 7471 ft 181 kts 332°
2026-05-06 19:43 57.02242 -133.09285 7464 ft 208 kts 333°
2026-05-06 19:44 57.03622 -133.10393 7495 ft 224 kts 334°
2026-05-06 19:44 57.05108 -133.11511 7494 ft 235 kts 336°
2026-05-06 19:44 57.06658 -133.12624 7496 ft 243 kts 336°
2026-05-06 19:44 57.08248 -133.13729 7492 ft 247 kts 337°
2026-05-06 19:45 57.09866 -133.14843 7492 ft 248 kts 337°
2026-05-06 19:45 57.11470 -133.15945 7488 ft 243 kts 337°
2026-05-06 19:45 57.13036 -133.17007 7487 ft 239 kts 337°
2026-05-06 19:45 57.14592 -133.18058 7491 ft 236 kts 338°
2026-05-06 19:46 57.16124 -133.19097 7492 ft 234 kts 337°
2026-05-06 19:46 57.17609 -133.20304 7496 ft 231 kts 328°
2026-05-06 19:46 57.18959 -133.21889 7501 ft 230 kts 323°
2026-05-06 19:46 57.20248 -133.23630 7494 ft 230 kts 321°
2026-05-06 19:47 57.21521 -133.25413 7490 ft 230 kts 320°
2026-05-06 19:47 57.22789 -133.27188 7488 ft 230 kts 320°
2026-05-06 19:47 57.24071 -133.28959 7489 ft 230 kts 320°
2026-05-06 19:47 57.25362 -133.30720 7489 ft 231 kts 321°
2026-05-06 19:48 57.26664 -133.32478 7489 ft 232 kts 321°
2026-05-06 19:48 57.27968 -133.34227 7489 ft 232 kts 321°
2026-05-06 19:48 57.29279 -133.35975 7489 ft 233 kts 321°
2026-05-06 19:48 57.30596 -133.37723 7488 ft 233 kts 321°
2026-05-06 19:49 57.31913 -133.39470 7492 ft 233 kts 321°
2026-05-06 19:49 57.33230 -133.41218 7491 ft 235 kts 321°
2026-05-06 19:49 57.34577 -133.43000 7492 ft 242 kts 321°
2026-05-06 19:49 57.35968 -133.44843 7490 ft 247 kts 321°
2026-05-06 19:50 57.37369 -133.46714 7492 ft 250 kts 321°
2026-05-06 19:50 57.38792 -133.48603 7488 ft 252 kts 322°
2026-05-06 19:50 57.40226 -133.50508 7490 ft 254 kts 321°
2026-05-06 19:50 57.41658 -133.52404 7489 ft 254 kts 322°
2026-05-06 19:51 57.43105 -133.54321 7489 ft 255 kts 321°
2026-05-06 19:51 57.44548 -133.56236 7489 ft 255 kts 321°
2026-05-06 19:51 57.45990 -133.58150 7489 ft 255 kts 321°
2026-05-06 19:51 57.47435 -133.60070 7489 ft 255 kts 321°
2026-05-06 19:52 57.48883 -133.61998 7489 ft 255 kts 321°
2026-05-06 19:52 57.50327 -133.63924 7489 ft 255 kts 321°
2026-05-06 19:52 57.51762 -133.65842 7489 ft 255 kts 321°
2026-05-06 19:52 57.53210 -133.67777 7489 ft 255 kts 321°
2026-05-06 19:53 57.54650 -133.69703 7489 ft 255 kts 321°
2026-05-06 19:53 57.56094 -133.71638 7489 ft 255 kts 321°
2026-05-06 19:53 57.57520 -133.73554 7489 ft 255 kts 321°
2026-05-06 19:53 57.58960 -133.75489 7489 ft 255 kts 321°
2026-05-06 19:54 57.60420 -133.77451 7489 ft 255 kts 321°
2026-05-06 19:54 57.61838 -133.79359 7488 ft 253 kts 321°
2026-05-06 19:54 57.63251 -133.81262 7488 ft 249 kts 321°
2026-05-06 19:54 57.64667 -133.83173 7488 ft 246 kts 321°
2026-05-06 19:55 57.66034 -133.85018 7489 ft 245 kts 321°
2026-05-06 19:55 57.67405 -133.86879 7489 ft 244 kts 321°
2026-05-06 19:55 57.68797 -133.88769 7487 ft 243 kts 321°
2026-05-06 19:55 57.70163 -133.90618 7490 ft 243 kts 321°
2026-05-06 19:56 57.71510 -133.92447 7491 ft 243 kts 321°
2026-05-06 19:56 57.72895 -133.94324 7490 ft 242 kts 321°
2026-05-06 19:56 57.74240 -133.96149 7491 ft 242 kts 321°
2026-05-06 19:56 57.75600 -133.97998 7491 ft 242 kts 321°
2026-05-06 19:57 57.76967 -133.99857 7490 ft 242 kts 321°
2026-05-06 19:57 57.78326 -134.01701 7486 ft 243 kts 320°
2026-05-06 19:57 57.79698 -134.03567 7492 ft 243 kts 321°
2026-05-06 19:57 57.81067 -134.05429 7489 ft 243 kts 320°
2026-05-06 19:58 57.82435 -134.07291 7489 ft 243 kts 321°
2026-05-06 19:58 57.83798 -134.09158 7491 ft 243 kts 321°
2026-05-06 19:58 57.85174 -134.11058 7489 ft 243 kts 320°
2026-05-06 19:58 57.86526 -134.12908 7492 ft 243 kts 320°
2026-05-06 19:59 57.87908 -134.14805 7487 ft 243 kts 320°
2026-05-06 19:59 57.89264 -134.16672 7489 ft 243 kts 320°
2026-05-06 19:59 57.90629 -134.18543 7492 ft 243 kts 320°
2026-05-06 19:59 57.91987 -134.20427 7491 ft 243 kts 320°
2026-05-06 20:00 57.93333 -134.22293 7489 ft 243 kts 320°
2026-05-06 20:00 57.94714 -134.24185 7490 ft 243 kts 321°
2026-05-06 20:00 57.96065 -134.26023 7489 ft 243 kts 321°
2026-05-06 20:00 57.97436 -134.27889 7490 ft 243 kts 321°
2026-05-06 20:01 57.98807 -134.29754 7489 ft 243 kts 322°
2026-05-06 20:01 58.00137 -134.31574 7489 ft 243 kts 322°
2026-05-06 20:01 58.01493 -134.33415 7487 ft 243 kts 322°
2026-05-06 20:01 58.02865 -134.35293 7490 ft 243 kts 321°
2026-05-06 20:02 58.04183 -134.37114 7491 ft 243 kts 321°
2026-05-06 20:02 58.05549 -134.39011 7491 ft 243 kts 321°
2026-05-06 20:02 58.06931 -134.40926 7489 ft 243 kts 321°
2026-05-06 20:02 58.08295 -134.42822 7489 ft 243 kts 321°
2026-05-06 20:03 58.09656 -134.44711 7490 ft 243 kts 321°
2026-05-06 20:03 58.11007 -134.46578 7495 ft 243 kts 322°
2026-05-06 20:03 58.12385 -134.48510 7492 ft 243 kts 321°
2026-05-06 20:03 58.13702 -134.50416 7493 ft 243 kts 320°
2026-05-06 20:04 58.15035 -134.52402 7490 ft 243 kts 320°
2026-05-06 20:04 58.16362 -134.54378 7490 ft 243 kts 319°
2026-05-06 20:04 58.17593 -134.56214 7488 ft 243 kts 319°
2026-05-06 20:04 58.18919 -134.58194 7490 ft 243 kts 319°
2026-05-06 20:05 58.20255 -134.60183 7489 ft 243 kts 319°
2026-05-06 20:05 58.21577 -134.62156 7491 ft 243 kts 319°
2026-05-06 20:05 58.22904 -134.64150 7488 ft 243 kts 319°
2026-05-06 20:05 58.24229 -134.66142 7491 ft 243 kts 319°
2026-05-06 20:06 58.25558 -134.68137 7489 ft 243 kts 320°
2026-05-06 20:06 58.26880 -134.70122 7490 ft 243 kts 320°
2026-05-06 20:06 58.28209 -134.72115 7489 ft 244 kts 320°
2026-05-06 20:06 58.29539 -134.74121 7487 ft 244 kts 319°
2026-05-06 20:07 58.30862 -134.76117 7491 ft 244 kts 320°
2026-05-06 20:07 58.32199 -134.78121 7490 ft 244 kts 318°
2026-05-06 20:07 58.33557 -134.80076 7494 ft 246 kts 321°
2026-05-06 20:07 58.35000 -134.81812 7500 ft 247 kts 326°
2026-05-06 20:08 58.36493 -134.83433 7502 ft 247 kts 328°
2026-05-06 20:08 58.38022 -134.85001 7494 ft 248 kts 328°
2026-05-06 20:08 58.39546 -134.86531 7489 ft 248 kts 328°
2026-05-06 20:08 58.41078 -134.88049 7489 ft 249 kts 329°
2026-05-06 20:09 58.42618 -134.89569 7491 ft 249 kts 329°
2026-05-06 20:09 58.44155 -134.91099 7487 ft 249 kts 328°
2026-05-06 20:09 58.45686 -134.92644 7491 ft 249 kts 328°
2026-05-06 20:09 58.47216 -134.94191 7488 ft 249 kts 329°
2026-05-06 20:10 58.48746 -134.95730 7490 ft 249 kts 328°
2026-05-06 20:10 58.50285 -134.97281 7487 ft 249 kts 329°
2026-05-06 20:10 58.51813 -134.98800 7485 ft 249 kts 330°
2026-05-06 20:10 58.53111 -135.00021 7477 ft 250 kts 331°
2026-05-06 20:11 58.54419 -135.01191 7463 ft 251 kts 332°
2026-05-06 20:11 58.55997 -135.02571 7466 ft 250 kts 332°
2026-05-06 20:11 58.57589 -135.03915 7464 ft 250 kts 333°
2026-05-06 20:11 58.59177 -135.05285 7465 ft 250 kts 331°
2026-05-06 20:12 58.60732 -135.06773 7467 ft 249 kts 329°
2026-05-06 20:12 58.62264 -135.08326 7467 ft 249 kts 328°
2026-05-06 20:12 58.63812 -135.09847 7467 ft 250 kts 333°
2026-05-06 20:12 58.65446 -135.10975 7477 ft 251 kts 340°
2026-05-06 20:13 58.67146 -135.11832 7476 ft 252 kts 344°
2026-05-06 20:13 58.68860 -135.12546 7468 ft 253 kts 345°
2026-05-06 20:13 58.70589 -135.13208 7466 ft 253 kts 346°
2026-05-06 20:13 58.72322 -135.13833 7464 ft 253 kts 347°
2026-05-06 20:14 58.74051 -135.14449 7460 ft 253 kts 347°
2026-05-06 20:14 58.75788 -135.15075 7460 ft 254 kts 347°
2026-05-06 20:14 58.77441 -135.16124 7471 ft 249 kts 330°
2026-05-06 20:14 58.78907 -135.17887 7471 ft 250 kts 322°
2026-05-06 20:15 58.80288 -135.19943 7474 ft 251 kts 319°
2026-05-06 20:15 58.81642 -135.22080 7462 ft 252 kts 318°
2026-05-06 20:15 58.83007 -135.24213 7461 ft 253 kts 319°
2026-05-06 20:15 58.84381 -135.26304 7463 ft 253 kts 320°